Погода Им. Полины Осипенко

Погода Им. Полины Осипенко : погода сейчас, прогноз погоды и архив. Всё, что Вы хотите узнать о погоде Им. Полины Осипенко!

Хотите узнать прогноз погоды Им. Полины Осипенко? Тогда Вам сюда: Погода Им. Полины Осипенко

Поиск расширенной информации на нашем сайте:

Другие новости

Новости СМИ2

Главная страница сайта

Новости сайта

02.10.2013

Напоминаем, что на нашем новом сайте вы можете получить высокодетализированные прогнозы погоды по пунктам России, СНГ и мира (включающие важные для авиации метеовеличины, такие как направление и скорость ветра, видимость, явления погоды, количество и форма облачности, нижняя и верхняя граница облачности), а также ознакомиться с разнообразными материалами по авиационной метеорологии и подборкой полезных ссылок на эту тему.

Сайт Метеоцентр.Азия посвящён разработке технологий оптимизации авиаметеорологического обслуживания, включая проектирование и перспективное создание нескольких автоматизированных авиаметеорологических систем:
- система выпуска высокодетальных прогностических карт явлений погоды для нижнего воздушного пространства по России и ближнему зарубежью;
- система верификации прогнозов TAF (выпускаемых синоптиками официальных АМСГ РФ и ближнего зарубежья) и AUTOTAF (выпускаемых сайтом Метеоцентр.Азия) - выявление ошибок, онлайн-сопоставление с фактической погодой METAR, автоматическое внесение коррективов в прогнозы при резком отклонении фактической погоды от прогноза, подсчёт оправдываемости прогнозов по элементам и в целом;
- система обработки, анализа и отображения авиаметеорологической информации для применения провайдерами метеорологической информации.

Рекомендуем: пленка на кузов

Погода Им. Полины Осипенко - сегодня

Время (UTC), дата Ветер
(°,м/с) 
Видим.   Явления Облачность Т
(°С)
Тd
(°С)
f(%) Тe
(°С)
Pmin
(гПа)
dP
(гПа)
Po
(мм)
O2
(г/м3)
Тmin Tmax R s Состояние
почвы
06 18.02.17 340 (С) 20000 м    6/0 верхняя 
[Cs]
-14 -22.8 47 -19  1013.9  -0.6  753  321           
09 18.02.17 350 (С) 20000 м    10/0 средняя, верхняя 
[Ac trans|Cs]
-16 -23.5 52 -18  1014.8  0.8  754  324    -13.6       
12 18.02.17 320 (СЗ) 20000 м    4/0 средняя 
[Ac trans]
-19.4 -24.2 66 -22  1015.4  0.5  754  329           
15 18.02.17 тихо ()   20000 м    ясно 
-25 -27.6 79 -25  1015.3  0.5  754  336           
18 18.02.17 тихо ()   20000 м    ясно 
-29 -31.9 76 -29  1015.2  -0.2  754  342           
21 18.02.17 060 (СВ) 20000 м    5/0 средняя 
[Ac trans]
-31.9 -35.3 72 -36  1015.4  0.1  754  346  -32.3      10  равномерный
сухой снег
100% 
00 19.02.17 тихо ()   20000 м    10/0 средняя, верхняя 
[Ac trans|Ci fib]
-27.7 -31.3 71 -28  1015.4  0.1  754  340  -32.7         
03 19.02.17 тихо ()   20000 м    6/0 верхняя 
[Cs]
-19.1 -26.3 53 -19  1014.4  -0.7  753  328           
06 19.02.17 140 (ЮВ) 20000 м    ясно 
-15.1 -24.7 44 -17  1012.7  -1.5  752  323           
09 19.02.17 140 (ЮВ) 20000 м    ясно 
-18.6 -26.1 52 -19  1013.2  0.3  752  327    -14.8       
12 19.02.17 070 (В) 20000 м    ясно 
-24.7 -27.2 80 -25  1013.6  0.1  753  335           
15 19.02.17 070 (В) 20000 м    ясно 
-30.2 -33.3 74 -31  1013.8  0.1  753  343           
18 19.02.17 060 (СВ) 20000 м    ясно 
-30.8 -33.8 75 -32  1013.8  0.1  753  344           
21 19.02.17 360 (С) 20000 м    ясно 
-34.1 -38 68 -35  1014.3  0.4  753  349  -34.1      10  равномерный
сухой снег
100% 
00 20.02.17 220 (ЮЗ) 20000 м    ясно 
-27.8 -31.4 71 -28  1014.8  0.8  753  340  -34.7         
03 20.02.17 120 (ЮВ) 20000 м    ясно 
-18.4 -26.3 50 -19  1013.4  -1  753  327           
06 20.02.17 130 (ЮВ) 20000 м    4/0 средняя 
[Ac trans]
-12.7 -25.7 33 -13  1012.2  -0.9  752  319           
09 20.02.17 290 (З) 20000 м    10/0 средняя 
[As trans]
-15.9 -25.8 42 -16  1013.2  0.8  753  324    -11       
12 20.02.17 тихо ()   20000 м    5/0 средняя 
[As trans]
-23.8 -27.5 71 -24  1014.9  1.3  754  334           
15 20.02.17 060 (СВ) 20000 м    ясно 
-28.5 -31.5 75 -29  1015.8  0.7  754  341           
18 20.02.17 060 (СВ) 20000 м    ясно 
-30.6 -33.5 76 -31  1016.5  0.6  755  344           
21 20.02.17 060 (СВ) 20000 м    ясно 
-31.9 -35.2 73 -33  1018.3  1.7  756  347  -32.5      10  равномерный
сухой снег
100% 
00 21.02.17 150 (ЮВ) 20000 м    3/0 верхняя 
[Ci fib]
-26 -30.4 66 -27  1019.6  1.5  757  339  -32.8         
03 21.02.17 130 (ЮВ) 20000 м    ясно 
-14.4 -25.5 38 -14  1018.5  -0.6  757  324           
06 21.02.17 110 (В) 20000 м    ясно 
-9.4 -23.6 30 -9  1017.2  -1.1  756  317           
Время (UTC), дата Ветер
(°,м/с) 
Видим.   Явления Облачность Т
(°С)
Тd
(°С)
f(%) Тe
(°С)
Pmin
(гПа)
dP
(гПа)
Po
(мм)
O2
(г/м3)
Тmin Tmax R s Состояние
почвы

Для получения пояснительной информации подведите курсор к названию столбца.

ПОГОДА Им. Полины Осипенко - архив

Всё, что Вы хотите узнать о погоде Им. Полины Осипенко - удобно и подробно!

Выберите нужную дату (начиная с 1 января 2015* года) и нажмите кнопку "Найти".
Будут отображены архивные сводки погоды по пункту Им. Полины Осипенко, начиная с указанной даты.


Отображать данные в формате CSV (для использования в таблицах Excel)


Внимание! Наш архив погоды предназначен исключительно для личного некоммерческого использования в познавательных целях. Если Вам необходимы официальные справки о состоянии погоды (для производственных, юридических, коммерческих и т.п. целей), обращайтесь в органы Росгидромета.

*Примечание: данная дата относится к архиву по метеостанциям СССР (Россия, СНГ, Балтия).
Архив по метеостанциям Зарубежной Европы и Азии (кроме Китая) хранится 10 дней, по другим регионам земного шара (Китай, Африка, Америка, Австралия, Океания) - 1 день.

Им. Полины Осипенко - район местоположения метеостанции


Название, широта, долгота, высота метеостанции:
Им. Полины Осипенко 52.4°ш. 136.5°д. 73 м над ур. моря [Российская Федерация]

Дополнительная информация

В oтличие oт бoльшинства пoгoдных сайтoв мы публикуем пoдрoбную метеoинфoрмацию в детальнoм прoфессиoнальнoм фoрмате.

Характеристики температуры и влажнoсти вoздуха измеряются на высoте 2 м в тени вдали oт зданий и деревьев.
Скoрoсть ветра измеряется на высoте 10 м (на урoвне рoста челoвека скoрoсть ветра ниже в 1.5-2 раза). Если метеoстанция нахoдится в гoрoде или в лесу, тo скoрoсть ветра занижена на 2-4 м/с пo сравнению с oткрытым местoм. Скoрoсть ветра над акватoриями крупных рек и oзёр, а также на вершинах хoлмoв на 2-5 м/с выше, чем в oбычных услoвиях.
Атмoсфернoе давление в разных тoчках местнoсти мoжет значительнo oтличаться oт давления на метеoстанции, в зависимoсти oт услoвий рельефа (при пoдъёме на 10 м давление пoнижается примернo на 1 мм рт.ст.).